EW3937 Weather Reports


Display with metric or nautical units.
time (UTC)temp
F
wind
direction
speed
MPH
gust
MPH
rain 1hr
in
rain 24hr
in
rain mn
in
humidity
%
barometer
mb
20260505002503 75 347 4.0 9.0 0.00 0.00 0.00 36 1008.0
20260505002003 75 347 4.0 8.0 0.00 0.00 0.00 37 1008.0
20260505001717 75 346 3.0 8.0 0.00 0.00 0.00 34 1008.0
20260505001003 76 332 3.0 8.0 0.00 0.00 0.00 34 1008.1
20260505000503 76 326 3.0 8.0 0.00 0.00 0.00 37 1008.0
20260505000004 76 272 3.0 10.0 0.00 0.00 0.00 36 1008.1
20260504235503 76 236 3.0 12.0 0.00 0.00 0.00 37 1008.0
20260504235003 76 239 3.0 12.0 0.00 0.00 0.00 35 1008.1
20260504234504 76 236 3.0 11.0 0.00 0.00 0.00 37 1008.1
20260504234003 76 234 2.0 11.0 0.00 0.00 0.00 36 1008.1
20260504233503 76 247 2.0 8.0 0.00 0.00 0.00 37 1008.1
20260504233003 76 283 3.0 7.0 0.00 0.00 0.00 37 1008.1
20260504232503 76 264 4.0 8.0 0.00 0.00 0.00 38 1008.1
20260504232003 76 244 4.0 10.0 0.00 0.00 0.00 36 1008.1
20260504231503 76 232 4.0 11.0 0.00 0.00 0.00 37 1008.0
20260504231218 76 231 4.0 12.0 0.00 0.00 0.00 35 1008.1
20260504230503 76 239 3.0 12.0 0.00 0.00 0.00 37 1008.2
20260504230003 76 258 4.0 7.0 0.00 0.00 0.00 36 1008.2
20260504225503 76 241 4.0 10.0 0.00 0.00 0.00 37 1008.3
20260504225003 76 237 3.0 11.0 0.00 0.00 0.00 36 1008.2
20260504224503 76 240 3.0 11.0 0.00 0.00 0.00 38 1008.3
20260504224003 76 249 3.0 9.0 0.00 0.00 0.00 37 1008.4
20260504223503 76 246 3.0 13.0 0.00 0.00 0.00 40 1008.4
20260504223003 75 236 3.0 13.0 0.00 0.00 0.00 38 1008.5
20260504222503 75 245 4.0 12.0 0.00 0.00 0.00 37 1008.5
20260504222003 75 231 4.0 10.0 0.00 0.00 0.00 40 1008.5
20260504221503 75 226 3.0 10.0 0.00 0.00 0.00 38 1008.5
20260504221003 75 233 2.0 10.0 0.00 0.00 0.00 38 1008.6
20260504220503 75 269 3.0 12.0 0.00 0.00 0.00 39 1008.6
20260504220003 75 266 4.0 12.0 0.00 0.00 0.00 37 1008.7
20260504215503 75 237 4.0 12.0 0.00 0.00 0.00 38 1008.7
20260504215217 75 234 3.0 12.0 0.00 0.00 0.00 36 1008.6
20260504214504 76 282 3.0 8.0 0.00 0.00 0.00 39 1008.7
20260504214003 76 248 3.0 9.0 0.00 0.00 0.00 39 1008.8
20260504213503 76 237 3.0 10.0 0.00 0.00 0.00 37 1008.8
20260504213003 75 245 2.0 10.0 0.00 0.00 0.00 39 1008.8
20260504212503 76 246 2.0 6.0 0.00 0.00 0.00 38 1008.8
20260504212217 76 248 3.0 10.0 0.00 0.00 0.00 38 1008.8
20260504211503 75 251 3.0 10.0 0.00 0.00 0.00 43 1008.8
20260504211003 75 251 3.0 9.0 0.00 0.00 0.00 39 1008.9
20260504210503 75 248 3.0 13.0 0.00 0.00 0.00 41 1008.9
20260504210004 74 253 3.0 13.0 0.00 0.00 0.00 40 1009.0
20260504205503 74 259 3.0 8.0 0.00 0.00 0.00 41 1009.0
20260504205003 74 242 3.0 11.0 0.00 0.00 0.00 40 1009.1
20260504204503 74 241 2.0 13.0 0.00 0.00 0.00 39 1009.1
20260504204003 75 264 3.0 13.0 0.00 0.00 0.00 38 1009.1
20260504203503 74 251 3.0 9.0 0.00 0.00 0.00 37 1009.1
20260504203217 74 243 3.0 8.0 0.00 0.00 0.00 40 1009.1
20260504202503 74 235 4.0 8.0 0.00 0.00 0.00 39 1009.1
20260504202003 74 236 4.0 12.0 0.00 0.00 0.00 40 1009.1
20260504201503 73 239 3.0 12.0 0.00 0.00 0.00 40 1009.2
20260504201003 74 237 4.0 10.0 0.00 0.00 0.00 40 1009.2
20260504200503 74 232 4.0 10.0 0.00 0.00 0.00 38 1009.3
20260504200003 74 225 4.0 10.0 0.00 0.00 0.00 41 1009.2
20260504195718 74 227 4.0 10.0 0.00 0.00 0.00 39 1009.3
20260504195003 73 238 4.0 12.0 0.00 0.00 0.00 42 1009.3
20260504194503 73 236 4.0 12.0 0.00 0.00 0.00 41 1009.2
20260504194003 73 232 5.0 10.0 0.00 0.00 0.00 44 1009.3
20260504193503 72 227 6.0 13.0 0.00 0.00 0.00 41 1009.3
20260504193216 72 223 6.0 13.0 0.00 0.00 0.00 44 1009.3
20260504192717 72 228 5.0 12.0 0.00 0.00 0.00 42 1009.3
20260504192003 72 232 5.0 10.0 0.00 0.00 0.00 43 1009.3
20260504191503 72 235 5.0 12.0 0.00 0.00 0.00 42 1009.4
20260504191216 72 235 5.0 12.0 0.00 0.00 0.00 43 1009.4
20260504190504 72 238 5.0 10.0 0.00 0.00 0.00 45 1009.3
20260504190003 71 235 5.0 12.0 0.00 0.00 0.00 40 1009.4
20260504185503 71 229 5.0 12.0 0.00 0.00 0.00 42 1009.4
20260504185003 71 227 5.0 11.0 0.00 0.00 0.00 41 1009.4
20260504184503 71 226 5.0 10.0 0.00 0.00 0.00 42 1009.5
20260504184003 71 225 5.0 10.0 0.00 0.00 0.00 42 1009.5
20260504183503 71 225 4.0 13.0 0.00 0.00 0.00 42 1009.5
20260504183008 71 230 4.0 13.0 0.00 0.00 0.00 42 1009.5
20260504182503 71 238 5.0 8.0 0.00 0.00 0.00 42 1009.5
20260504182003 70 234 5.0 13.0 0.00 0.00 0.00 44 1009.5
20260504181717 70 235 5.0 13.0 0.00 0.00 0.00 42 1009.5
20260504181003 70 233 3.0 11.0 0.00 0.00 0.00 43 1009.5
20260504180717 71 231 3.0 8.0 0.00 0.00 0.00 44 1009.5
20260504180004 70 232 3.0 7.0 0.00 0.00 0.00 46 1009.4
20260504175503 70 237 3.0 9.0 0.00 0.00 0.00 46 1009.4
20260504175003 69 239 3.0 9.0 0.00 0.00 0.00 46 1009.4
20260504174717 70 232 3.0 9.0 0.00 0.00 0.00 45 1009.5
20260504174003 69 227 3.0 9.0 0.00 0.00 0.00 45 1009.5
20260504173503 70 234 3.0 9.0 0.00 0.00 0.00 46 1009.4
20260504173003 70 236 3.0 8.0 0.00 0.00 0.00 46 1009.5
20260504172503 69 234 3.0 7.0 0.00 0.00 0.00 45 1009.5
20260504172004 69 227 2.0 7.0 0.00 0.00 0.00 45 1009.5
20260504171504 69 226 2.0 7.0 0.00 0.00 0.00 44 1009.6
20260504171218 70 228 1.0 7.0 0.00 0.00 0.00 44 1009.5
20260504170717 70 238 1.0 7.0 0.00 0.00 0.00 46 1009.6
20260504151003 59 78 0.0 2.0 0.00 0.00 0.00 66 1009.7
20260504150503 59 81 0.0 2.0 0.00 0.00 0.00 67 1009.8
20260504141216 52 0 0.0 2.0 0.00 0.00 0.00 72 1009.6
20260504140503 52 123 0.0 2.0 0.00 0.00 0.00 75 1009.6
20260504130503 43 0 0.0 0.0 0.00 0.00 0.00 80 1009.3
20260504110503 39 0 0.0 0.0 0.00 0.00 0.00 89 1009.6
20260504110217 39 0 0.0 0.0 0.00 0.00 0.00 89 1009.6
20260504100503 40 0 0.0 0.0 0.00 0.00 0.00 87 1009.6
20260504082003 40 0 0.0 0.0 0.00 0.00 0.00 87 1009.7
20260504081503 40 0 0.0 0.0 0.00 0.00 0.00 88 1009.7
20260504081003 40 0 0.0 0.0 0.00 0.00 0.00 87 1009.7
20260504080503 40 0 0.0 0.0 0.00 0.00 0.00 87 1009.7
20260504060218 44 0 0.0 0.0 0.00 0.00 0.00 78 1010.1
20260504050503 48 0 0.0 0.0 0.00 0.00 0.00 70 1010.4
20260504050003 48 0 0.0 0.0 0.00 0.00 0.00 69 1010.4
20260504045503 48 0 0.0 0.0 0.00 0.00 0.00 69 1010.4
20260504045003 48 0 0.0 0.0 0.00 0.00 0.00 68 1010.4
20260504044504 48 0 0.0 0.0 0.00 0.00 0.00 68 1010.4
20260504044217 48 0 0.0 0.0 0.00 0.00 0.00 68 1010.4
20260504043503 48 0 0.0 0.0 0.00 0.00 0.00 68 1010.4
20260504043003 49 0 0.0 0.0 0.00 0.00 0.00 67 1010.4
20260504042718 49 0 0.0 0.0 0.00 0.00 0.00 66 1010.4
20260504042003 50 0 0.0 0.0 0.00 0.00 0.00 63 1010.3
20260504041503 50 0 0.0 0.0 0.00 0.00 0.00 63 1010.4
20260504041003 51 0 0.0 1.0 0.00 0.00 0.00 62 1010.4
20260504040503 51 0 0.0 1.0 0.00 0.00 0.00 60 1010.3
20260504040003 52 0 0.0 1.0 0.00 0.00 0.00 60 1010.3
20260504035503 52 0 0.0 1.0 0.00 0.00 0.00 61 1010.3
20260504035003 52 0 0.0 1.0 0.00 0.00 0.00 60 1010.3
20260504034503 54 0 0.0 1.0 0.00 0.00 0.00 58 1010.3
20260504034003 55 0 0.0 1.0 0.00 0.00 0.00 55 1010.1
20260504033503 56 0 0.0 0.0 0.00 0.00 0.00 54 1010.2
20260504033003 56 0 0.0 0.0 0.00 0.00 0.00 53 1010.1
20260504032717 57 0 0.0 0.0 0.00 0.00 0.00 53 1010.1
20260504032216 58 0 0.0 0.0 0.00 0.00 0.00 50 1010.1
20260504031503 59 0 0.0 1.0 0.00 0.00 0.00 49 1010.1
20260504031003 60 0 0.0 1.0 0.00 0.00 0.00 48 1010.0
20260504030503 62 0 0.0 1.0 0.00 0.00 0.00 45 1010.1
20260504030003 63 147 0.0 1.0 0.00 0.00 0.00 43 1010.0
20260504025718 64 145 1.0 2.0 0.00 0.00 0.00 42 1010.0
20260504025003 67 193 1.0 2.0 0.00 0.00 0.00 40 1010.0
20260504024503 69 219 1.0 3.0 0.00 0.00 0.00 35 1010.0
20260504024003 69 216 1.0 3.0 0.00 0.00 0.00 35 1010.0
20260504023503 70 217 1.0 3.0 0.00 0.00 0.00 35 1010.0
20260504023003 71 220 0.0 3.0 0.00 0.00 0.00 35 1010.0
20260504022503 72 224 0.0 2.0 0.00 0.00 0.00 34 1010.1
20260504022003 73 233 1.0 3.0 0.00 0.00 0.00 33 1010.1
20260504021503 73 232 1.0 3.0 0.00 0.00 0.00 32 1010.1
20260504021003 74 239 1.0 3.0 0.00 0.00 0.00 30 1010.1
20260504020503 74 238 2.0 5.0 0.00 0.00 0.00 29 1010.2
20260504020003 75 231 1.0 5.0 0.00 0.00 0.00 30 1010.2
20260504015503 75 226 1.0 4.0 0.00 0.00 0.00 30 1010.2
20260504015003 76 231 1.0 5.0 0.00 0.00 0.00 30 1010.3
20260504014503 76 228 1.0 5.0 0.00 0.00 0.00 30 1010.3
20260504014003 76 227 1.0 3.0 0.00 0.00 0.00 30 1010.4
20260504013503 76 236 2.0 4.0 0.00 0.00 0.00 27 1010.4
20260504013003 76 228 3.0 6.0 0.00 0.00 0.00 28 1010.4
20260504012503 76 223 3.0 7.0 0.00 0.00 0.00 27 1010.4
20260504012003 76 229 3.0 9.0 0.00 0.00 0.00 28 1010.5
20260504011503 76 232 3.0 9.0 0.00 0.00 0.00 28 1010.5
20260504011003 76 223 3.0 6.0 0.00 0.00 0.00 29 1010.6
20260504010503 76 224 1.0 8.0 0.00 0.00 0.00 28 1010.7
20260504010003 77 238 1.0 8.0 0.00 0.00 0.00 28 1010.8
20260504005503 77 250 2.0 3.0 0.00 0.00 0.00 29 1010.8
20260504005003 77 224 3.0 8.0 0.00 0.00 0.00 29 1010.9
20260504004719 76 224 3.0 8.0 0.00 0.00 0.00 29 1010.9
20260504004003 76 229 2.0 8.0 0.00 0.00 0.00 28 1011.0
20260504003503 77 232 3.0 8.0 0.00 0.00 0.00 28 1011.0
20260504003003 76 225 3.0 10.0 0.00 0.00 0.00 27 1011.1
20260504002716 76 227 3.0 10.0 0.00 0.00 0.00 26 1011.1